Ashtabula, OH

3:01 AM EDT on August 21, 2017 (GMT -0400)
Ashtabula County

Weather History for KHZY - May, 2014

Change the Weather History Date:

Friday, May 2, 2014

  Actual Average (KGKJ) Record (KGKJ)
Temperature  
Mean Temperature 50 °F -  
Max Temperature 54 °F 63 °F 85 °F (1970)
Min Temperature 46 °F 37 °F 24 °F (1978)
Degree Days  
Heating Degree Days 15    
Moisture  
Dew Point 38 °F    
Average Humidity 66    
Maximum Humidity 76    
Minimum Humidity 55    
Precipitation  
Precipitation 0.00 in - - ()
Sea Level Pressure  
Sea Level Pressure 29.81 in    
Wind  
Wind Speed 10 mph (WSW)    
Max Wind Speed 15 mph    
Max Gust Speed -    
Visibility 10 miles    
Events Rain    
Averages and records for this station are not official NWS values.
T = Trace of Precipitation, MM = Missing Value Source: NWS Daily Summary

Daily Weather History Graph

Daily Weather History Graph

Search for Another Location

Airport or City:

Trip Planner

Search our weather history database for the weather conditions in past years. The results will help you decide how hot, cold, wet, or windy it might be!

Date:

Astronomy

May. 02, 2014 Rise Set
Actual Time 6:17 AM EDT 8:22 PM EDT
Civil Twilight 5:47 AM EDT 8:52 PM EDT
Nautical Twilight 5:10 AM EDT 9:30 PM EDT
Astronomical Twilight 4:29 AM EDT 10:11 PM EDT
Moon 8:53 AM EDT (5/2) 11:44 PM EDT (5/2)
Length of Visible Light 15h 05m
Length of Day
14h 04m
Waxing Crescent, 12% of the Moon is Illuminated
May 2
Waxing Crescent
May 6
First Quarter
May 14
Full
May 21
Last Quarter
May 28
New

Hourly Weather History & Observations

Time (EDT) Temp. Windchill Dew Point Humidity Pressure Visibility Wind Dir Wind Speed Gust Speed Precip Events Conditions
12:53 AM 48.9 °F - 37.9 °F 66% 29.80 in 10.0 mi WSW 9.2 mph - 0.00 in   Overcast
1:53 AM 48.0 °F - 37.0 °F 66% 29.79 in 10.0 mi West 10.4 mph - N/A   Overcast
2:53 AM 48.9 °F - 35.1 °F 59% 29.77 in 10.0 mi West 13.8 mph - N/A   Overcast
3:53 AM 48.0 °F - 36.0 °F 63% 29.77 in 10.0 mi West 13.8 mph - N/A   Overcast
4:53 AM 46.9 °F - 37.0 °F 68% 29.77 in 10.0 mi WSW 9.2 mph - 0.00 in   Overcast
5:53 AM 46.9 °F - 37.0 °F 68% 29.77 in 10.0 mi WSW 8.1 mph - N/A   Overcast
6:23 AM 46.9 °F - 37.0 °F 68% 29.78 in 10.0 mi WSW 13.8 mph - 0.00 in   Overcast
6:43 AM 46.0 °F 40.2 °F 37.9 °F 73% 29.78 in 10.0 mi WSW 12.7 mph - 0.00 in   Overcast
6:53 AM 46.0 °F 41.4 °F 37.9 °F 73% 29.78 in 10.0 mi SW 9.2 mph - 0.00 in   Overcast
7:53 AM 46.0 °F 41.0 °F 37.9 °F 73% 29.80 in 10.0 mi WSW 10.4 mph - 0.00 in Rain Light Rain
8:22 AM 46.0 °F 42.5 °F 39.0 °F 76% 29.80 in 10.0 mi WSW 6.9 mph - 0.00 in   Overcast
8:53 AM 46.9 °F - 39.0 °F 74% 29.81 in 10.0 mi SW 11.5 mph - 0.00 in   Overcast
9:00 AM 48.0 °F - 39.0 °F 71% 29.81 in 10.0 mi SW 11.5 mph - N/A   Overcast
9:53 AM 48.9 °F - 39.0 °F 69% 29.81 in 10.0 mi WSW 12.7 mph - N/A   Overcast
10:19 AM 48.9 °F - 39.0 °F 69% 29.81 in 10.0 mi West 12.7 mph - N/A   Overcast
10:44 AM 50.0 °F - 39.0 °F 66% 29.82 in 10.0 mi WSW 12.7 mph - 0.00 in   Overcast
10:53 AM 48.9 °F - 37.9 °F 66% 29.82 in 10.0 mi West 12.7 mph - 0.00 in   Overcast
11:53 AM 51.1 °F - 37.9 °F 61% 29.83 in 10.0 mi WSW 13.8 mph - N/A   Overcast
12:53 PM 52.0 °F - 37.9 °F 59% 29.81 in 10.0 mi West 15.0 mph - N/A   Overcast
1:53 PM 53.1 °F - 37.9 °F 57% 29.82 in 10.0 mi West 12.7 mph - N/A   Overcast
2:53 PM 53.1 °F - 37.0 °F 55% 29.82 in 10.0 mi West 11.5 mph - N/A   Overcast
3:53 PM 53.1 °F - 39.9 °F 61% 29.82 in 10.0 mi West 13.8 mph - 0.00 in   Overcast
4:53 PM 54.0 °F - 39.0 °F 57% 29.82 in 10.0 mi West 13.8 mph - N/A   Overcast
5:53 PM 52.0 °F - 39.0 °F 61% 29.83 in 10.0 mi SW 9.2 mph - N/A   Overcast
6:53 PM 52.0 °F - 39.9 °F 63% 29.83 in 10.0 mi SW 9.2 mph - N/A   Overcast
7:53 PM 51.1 °F - 39.9 °F 66% 29.84 in 10.0 mi WSW 4.6 mph - N/A   Overcast
8:53 PM 51.1 °F - 41.0 °F 68% 29.85 in 10.0 mi Calm Calm - N/A   Overcast
9:53 PM 50.0 °F - 41.0 °F 71% 29.86 in 10.0 mi SSW 3.5 mph - N/A   Overcast
10:53 PM 50.0 °F - 41.0 °F 71% 29.86 in 10.0 mi West 5.8 mph - N/A   Overcast
11:53 PM 50.0 °F - 39.9 °F 68% 29.84 in 10.0 mi Calm Calm - N/A   Overcast